GW1320 Weather Reports


time (UTC)temp
C
wind
direction
speed
KPH
gust
KPH
rain 1hr
cm
rain 24hr
cm
rain mn
cm
humidity
%
barometer
mb
20260506214548 11 360 17.7 22.5 0.00 2.95 0.69 62 1012.5
20260506213045 12 332 12.9 19.3 0.00 2.95 0.69 64 1012.3
20260506211542 12 307 12.9 20.9 0.00 2.95 0.69 62 1012.3
20260506210057 12 318 12.9 24.1 0.00 2.95 0.69 66 1012.4
20260506204550 12 315 16.1 24.1 0.00 2.95 0.69 65 1012.2
20260506203137 12 309 11.3 24.1 0.00 2.95 0.69 65 1012.1
20260506201549 12 316 9.7 20.9 0.00 2.95 0.69 61 1012.0
20260506200048 12 360 12.9 24.1 0.00 2.95 0.69 61 1012.1
20260506194542 12 360 14.5 24.1 0.00 2.95 0.69 63 1012.2
20260506193048 12 319 19.3 27.4 0.00 2.95 0.69 64 1012.2
20260506191552 12 360 19.3 24.1 0.00 2.95 0.69 63 1012.1
20260506190050 12 320 12.9 24.1 0.00 2.95 0.69 65 1011.9
20260506184556 12 331 14.5 22.5 0.00 2.95 0.69 63 1012.1
20260506183042 12 327 17.7 24.1 0.00 2.95 0.69 64 1012.2
20260506181550 13 322 16.1 27.4 0.00 2.95 0.69 66 1012.2
20260506180054 13 313 11.3 24.1 0.00 2.95 0.69 62 1012.1
20260506174607 13 331 16.1 33.8 0.00 2.95 0.69 60 1012.0
20260506173055 13 346 11.3 29.0 0.00 2.95 0.69 57 1012.1
20260506171543 13 287 12.9 32.2 0.00 2.95 0.69 65 1012.0
20260506170048 13 192 16.1 25.7 0.00 2.95 0.69 66 1012.0
20260506164552 12 317 12.9 19.3 0.00 2.95 0.69 67 1012.0
20260506163102 12 342 14.5 25.7 0.00 2.95 0.69 74 1012.0
20260506161547 12 326 17.7 25.7 0.00 2.95 0.69 73 1012.1
20260506160051 11 22 14.5 20.9 0.00 2.95 0.69 73 1011.9
20260506154553 11 318 8.0 22.5 0.00 2.95 0.69 77 1011.6
20260506153041 11 344 12.9 20.9 0.00 2.95 0.69 77 1011.6
20260506151549 10 319 14.5 20.9 0.00 2.95 0.69 78 1011.7
20260506150051 10 9 16.1 22.5 0.00 2.95 0.69 79 1011.5
20260506144550 10 313 17.7 24.1 0.00 2.95 0.69 77 1011.5
20260506143045 9 360 6.4 20.9 0.00 2.95 0.69 77 1011.1
20260506141544 8 360 11.3 22.5 0.00 2.95 0.69 76 1010.7
20260506140042 8 360 8.0 16.1 0.00 2.95 0.69 81 1010.6
20260506134542 8 360 9.7 17.7 0.00 2.95 0.69 82 1010.6
20260506133050 8 360 4.8 14.5 0.00 2.95 0.69 85 1010.6
20260506131546 7 360 6.4 17.7 0.00 2.95 0.69 87 1010.6
20260506130050 7 360 8.0 17.7 0.00 2.95 0.69 87 1010.5
20260506124549 7 360 4.8 16.1 0.00 2.95 0.69 88 1010.3
20260506123048 7 360 8.0 16.1 0.00 2.95 0.69 89 1010.1
20260506121552 6 360 6.4 16.1 0.00 2.95 0.69 89 1009.7
20260506120048 6 360 4.8 14.5 0.00 2.95 0.69 90 1009.6
20260506114546 6 360 4.8 9.7 0.00 2.95 0.69 92 1009.1
20260506113045 6 360 3.2 16.1 0.00 2.95 0.69 92 1008.8
20260506111543 7 360 4.8 14.5 0.00 2.95 0.69 94 1008.7
20260506110042 7 360 6.4 14.5 0.00 2.95 0.69 95 1008.8
20260506104541 7 360 4.8 12.9 0.00 2.95 0.69 95 1008.5
20260506103047 7 360 4.8 19.3 0.00 2.95 0.69 95 1008.1
20260506101608 7 360 8.0 16.1 0.00 2.95 0.69 95 1008.3
20260506100045 7 360 4.8 12.9 0.03 2.95 0.69 95 1007.6
20260506094546 7 360 3.2 9.7 0.03 2.95 0.69 96 1007.1
20260506093043 7 360 1.6 4.8 0.08 2.95 0.69 95 1007.3
20260506091541 7 360 3.2 9.7 0.15 2.95 0.69 95 1007.2
20260506090100 7 360 4.8 9.7 0.15 2.92 0.66 95 1007.4
20260506084552 7 360 6.4 22.5 0.15 2.92 0.66 95 1007.8
20260506083046 7 360 6.4 20.9 0.10 2.87 0.61 95 1007.7
20260506081549 7 360 3.2 17.7 0.05 2.79 0.53 95 1007.7
20260506073051 7 360 8.0 19.3 0.20 2.77 0.51 95 1007.1
20260506071548 7 360 8.0 16.1 0.23 2.74 0.48 95 1007.4
20260506061550 7 360 6.4 19.3 0.13 2.51 0.25 95 1007.1
20260506050109 8 360 8.0 16.1 0.05 2.34 0.08 95 1007.7
20260506044544 8 360 4.8 14.5 0.03 2.29 0.03 95 1007.6
20260506043049 8 360 1.6 6.4 0.03 2.29 0.03 95 1007.5
20260506041558 8 360 0.0 3.2 0.08 2.29 0.03 95 1007.4
20260506040048 8 360 3.2 6.4 0.13 2.26 0.00 95 1007.4
20260506034550 8 0 1.6 8.0 0.20 2.26 2.26 95 1007.8
20260506033043 8 360 3.2 14.5 0.25 2.26 2.26 95 1007.9
20260506031543 8 360 4.8 16.1 0.28 2.21 2.21 94 1008.2
20260506030048 9 360 4.8 12.9 0.23 2.13 2.13 94 1008.4
20260506024546 9 360 6.4 17.7 0.23 2.06 2.06 94 1008.6
20260506023102 10 360 9.7 20.9 0.23 2.01 2.01 94 1008.2
20260506021545 10 360 8.0 19.3 0.28 1.93 1.93 94 1008.2
20260506020050 10 360 6.4 17.7 0.36 1.91 1.91 94 1008.1
20260506014547 11 360 6.4 25.7 0.38 1.83 1.83 93 1007.9
20260506013055 13 295 12.9 33.8 0.41 1.75 1.75 95 1007.5
20260506011548 14 236 3.2 8.0 0.36 1.65 1.65 95 1007.5
20260506010049 14 277 4.8 11.3 0.38 1.55 1.55 95 1007.1
20260506004541 15 221 6.4 17.7 0.41 1.45 1.45 95 1007.2
20260506003050 14 253 11.3 20.9 0.46 1.32 1.32 95 1007.2
20260506001554 14 217 9.7 20.9 0.46 1.30 1.30 94 1007.0
20260506000057 15 248 12.9 20.9 0.38 1.17 1.17 94 1007.0
20260505234549 15 231 8.0 14.5 0.28 1.02 1.02 94 1007.0
20260505233050 15 211 8.0 22.5 0.23 0.89 0.89 94 1007.0
20260505231546 15 233 11.3 20.9 0.20 0.84 0.84 93 1007.4
20260505230112 15 232 11.3 24.1 0.15 0.76 0.76 93 1007.4
20260505224548 15 258 9.7 17.7 0.18 0.74 0.74 93 1007.7
20260505223050 15 270 12.9 20.9 0.18 0.66 0.66 93 1007.8
20260505221554 15 251 9.7 20.9 0.48 0.64 0.64 92 1007.7
20260505220055 15 251 11.3 22.5 0.61 0.61 0.61 92 1007.6